Regional Weather Roundup
Issued by NWS

Home | Current Version | Previous Version | Text Only | Print | Product List | Glossary On
Versions: 1 2 3 4 5 6 7 8 9 10 11 12 13 14 15 16 17 18 19 20 21 22 23 24 25 26 27
000
ASUS46 KPQR 221910
RWROR

OREGON REGIONAL WEATHER ROUNDUP
NATIONAL WEATHER SERVICE PORTLAND OR
1200 PM PDT TUE MAY 22 2018

NOTE: "FAIR" INDICATES FEW OR NO CLOUDS BELOW 12,000 FEET WITH
NO SIGNIFICANT WEATHER AND/OR OBSTRUCTIONS TO VISIBILITY.

ORZ001>013-222000-
NORTHWEST OREGON


CITY           SKY/WX    TMP DP  RH WIND       PRES   REMARKS
ASTORIA        SUNNY     66  56  70 NW9       29.92F
TILLAMOOK      SUNNY     63  54  72 NW6       29.94F
NEWPORT        MOSUNNY   57  54  88 N15       29.96F
PORTLAND       MOSUNNY   72  53  51 VRB3      29.89F
VANCOUVER WA   SUNNY     69  55  60 SW8       29.88F
SCAPPOOSE      SUNNY     71  57  61 E7        29.88F
HILLSBORO      SUNNY     72  55  55 CALM      29.89F
AURORA         SUNNY     73  54  51 E7        29.90F
MCMINNVILLE    SUNNY     69  56  62 S5        29.89F
SALEM          SUNNY     72  51  47 N7        29.88F
CORVALLIS      SUNNY     71  54  54 N5        29.90
EUGENE         MOSUNNY   70  57  63 N8        29.89F
$$

ORZ021-028-222000-
SOUTHWEST OREGON


CITY           SKY/WX    TMP DP  RH WIND       PRES   REMARKS
NORTH BEND     PTSUNNY   58  53  84 N21G26    29.93F
BROOKINGS      CLOUDY    53  49  86 S5        29.91S
ROSEBURG       SUNNY     72  51  47 VRB5      29.87F
GRANTS PASS    FAIR      73  48  40 CALM      29.87F
MEDFORD        SUNNY     73  47  39 CALM      29.84F
$$

ORZ014>016-041-222000-
COLUMBIA GORGE


CITY           SKY/WX    TMP DP  RH WIND       PRES   REMARKS
TROUTDALE      SUNNY     71  54  54 NW5       29.88F
THE DALLES     SUNNY     81  52  36 VRB3      29.86F
$$

ORZ029>031-041-044-049-050-061>064-502-503-505>511-222000-
EASTERN OREGON


CITY           SKY/WX    TMP DP  RH WIND       PRES   REMARKS
MADRAS         NOT AVBL
REDMOND        SUNNY     77  46  33 N10       29.93F
BEND           NOT AVBL
PRINEVILLE     SUNNY     75  43  31 VRB7      29.94F
KLAMATH FALLS  SUNNY     73  46  38 VRB7      29.93F
LAKEVIEW       LGT RAIN  62  44  51 N7        29.97S
HERMISTON      SUNNY     84  54  35 VRB3      29.86F
PENDLETON      SUNNY     80  51  36 N7G16     29.88F
MEACHAM        SUNNY     70  53  54 NE8       29.96S
LA GRANDE      SUNNY     76  55  48 N16       29.90F
BAKER CITY     SUNNY     73  53  49 VRB5      29.93F
BURNS          SUNNY     72  44  36 VRB3      29.94F
ROME           NOT AVBL
ONTARIO        SUNNY     79  52  38 CALM      29.87F
$$




USA.gov is the U.S. government's official web portal to all federal, state and local government web resources and services.